| time (UTC) | temp C | wind direction | speed KPH | gust KPH | rain 1hr cm | rain 24hr cm | rain mn cm | humidity % | barometer mb |
| 20260903030636 | 15 | 202 | 0.0 | 3.2 | 0.05 | 0.36 | 0.36 | 88 | 1018.0 |
| 20260903025137 | 15 | 248 | 0.0 | 1.6 | 0.05 | 0.36 | 0.30 | 88 | 1018.0 |
| 20260903023636 | 16 | 202 | 3.2 | 6.4 | 0.10 | 0.36 | 0.36 | 87 | 1018.0 |
| 20260903022140 | 16 | 292 | 0.0 | 0.0 | 0.20 | 0.46 | 0.46 | 87 | 1018.0 |
| 20260903020637 | 16 | 202 | 1.6 | 3.2 | 0.20 | 0.46 | 0.46 | 87 | 1018.0 |
| 20260903015136 | 16 | 248 | 0.0 | 0.0 | 0.20 | 0.30 | 0.25 | 86 | 1018.0 |
| 20260903013637 | 16 | 338 | 0.0 | 0.0 | 0.05 | 0.15 | 0.10 | 85 | 1018.0 |
| 20260903012137 | 16 | 292 | 0.0 | 0.0 | 0.00 | 0.10 | 0.05 | 85 | 1018.0 |
| 20260903010637 | 16 | 338 | 0.0 | 0.0 | 0.00 | 0.10 | 0.05 | 85 | 1018.0 |
| 20260903005138 | 16 | 315 | 0.0 | 0.0 | 0.00 | 0.10 | 0.05 | 84 | 1018.0 |
| 20260903003639 | 16 | 180 | 0.0 | 0.0 | 0.00 | 0.10 | 0.05 | 84 | 1018.0 |
| 20260903002137 | 16 | 292 | 0.0 | 0.0 | 0.00 | 0.10 | 0.05 | 83 | 1018.0 |
| 20260903000638 | 16 | 292 | 0.0 | 0.0 | 0.00 | 0.10 | 0.05 | 83 | 1018.0 |
| 20260902235137 | 16 | 292 | 0.0 | 0.0 | 0.05 | 0.10 | 0.05 | 82 | 1018.0 |
| 20260902233637 | 17 | 292 | 0.0 | 0.0 | 0.05 | 0.10 | 0.05 | 82 | 1018.0 |
| 20260902232137 | 17 | 0 | 0.0 | 0.0 | 0.05 | 0.10 | 0.05 | 81 | 1018.0 |
| 20260902230638 | 17 | 0 | 0.0 | 0.0 | 0.05 | 0.10 | 0.05 | 80 | 1018.0 |
| 20260902225141 | 17 | 338 | 0.0 | 0.0 | 0.00 | 0.05 | 0.00 | 79 | 1019.0 |
| 20260902223636 | 17 | 292 | 0.0 | 6.4 | 0.00 | 0.05 | 0.00 | 79 | 1019.0 |
| 20260902222136 | 17 | 270 | 0.0 | 1.6 | 0.00 | 0.05 | 0.00 | 78 | 1019.0 |
| 20260902220637 | 17 | 22 | 1.6 | 3.2 | 0.00 | 0.05 | 0.00 | 78 | 1019.0 |
| 20260902215136 | 18 | 338 | 0.0 | 0.0 | 0.00 | 0.05 | 0.00 | 78 | 1019.0 |
| 20260902213636 | 18 | 315 | 0.0 | 0.0 | 0.00 | 0.05 | 0.00 | 78 | 1018.0 |
| 20260902212136 | 18 | 292 | 0.0 | 0.0 | 0.00 | 0.05 | 0.00 | 78 | 1018.0 |
| 20260902210636 | 18 | 292 | 0.0 | 0.0 | 0.00 | 0.05 | 0.00 | 79 | 1018.0 |
| 20260902205137 | 18 | 68 | 0.0 | 6.4 | 0.00 | 0.05 | 0.05 | 79 | 1018.0 |
| 20260902203636 | 18 | 0 | 0.0 | 1.6 | 0.00 | 0.05 | 0.05 | 80 | 1018.0 |
| 20260902202136 | 18 | 315 | 0.0 | 0.0 | 0.00 | 0.05 | 0.05 | 80 | 1018.0 |
| 20260902200637 | 18 | 292 | 0.0 | 3.2 | 0.00 | 0.05 | 0.05 | 79 | 1018.0 |
| 20260902195137 | 18 | 292 | 0.0 | 0.0 | 0.00 | 0.05 | 0.05 | 79 | 1018.0 |
| 20260902193636 | 18 | 248 | 0.0 | 0.0 | 0.00 | 0.05 | 0.05 | 79 | 1018.0 |
| 20260902192137 | 18 | 202 | 0.0 | 3.2 | 0.00 | 0.05 | 0.05 | 78 | 1018.0 |
| 20260902190636 | 18 | 0 | 0.0 | 1.6 | 0.00 | 0.86 | 0.05 | 78 | 1018.0 |
| 20260902185138 | 18 | 338 | 1.6 | 1.6 | 0.00 | 0.86 | 0.05 | 77 | 1018.0 |
| 20260902183637 | 19 | 292 | 0.0 | 3.2 | 0.00 | 0.86 | 0.05 | 77 | 1018.0 |
| 20260902182136 | 19 | 225 | 1.6 | 3.2 | 0.00 | 0.86 | 0.05 | 76 | 1018.0 |
| 20260902180636 | 20 | 292 | 0.0 | 3.2 | 0.00 | 0.86 | 0.05 | 76 | 1018.0 |
| 20260902175136 | 20 | 292 | 0.0 | 0.0 | 0.00 | 0.86 | 0.05 | 75 | 1018.0 |
| 20260902173637 | 20 | 248 | 0.0 | 0.0 | 0.00 | 0.86 | 0.05 | 74 | 1018.0 |
| 20260902172136 | 21 | 248 | 0.0 | 0.0 | 0.00 | 0.86 | 0.05 | 72 | 1018.0 |
| 20260902170636 | 21 | 248 | 0.0 | 0.0 | 0.00 | 0.86 | 0.05 | 70 | 1018.0 |
| 20260902165136 | 21 | 248 | 0.0 | 3.2 | 0.00 | 0.86 | 0.05 | 68 | 1018.0 |
| 20260902163637 | 21 | 202 | 0.0 | 0.0 | 0.00 | 0.86 | 0.05 | 67 | 1018.0 |
| 20260902162136 | 21 | 202 | 0.0 | 0.0 | 0.00 | 0.86 | 0.05 | 66 | 1018.0 |
| 20260902160637 | 22 | 202 | 0.0 | 0.0 | 0.00 | 0.86 | 0.05 | 65 | 1018.0 |
| 20260902155136 | 22 | 112 | 0.0 | 0.0 | 0.00 | 0.86 | 0.05 | 64 | 1018.0 |
| 20260902153637 | 22 | 135 | 0.0 | 0.0 | 0.00 | 0.86 | 0.05 | 63 | 1018.0 |
| 20260902152137 | 23 | 202 | 0.0 | 0.0 | 0.00 | 0.86 | 0.05 | 62 | 1018.0 |
| 20260902150637 | 23 | 158 | 0.0 | 0.0 | 0.00 | 0.86 | 0.05 | 61 | 1018.0 |
| 20260902145137 | 23 | 90 | 0.0 | 3.2 | 0.00 | 0.86 | 0.05 | 60 | 1018.0 |
| 20260902143637 | 23 | 135 | 0.0 | 0.0 | 0.00 | 0.86 | 0.05 | 63 | 1018.0 |
| 20260902142137 | 22 | 112 | 0.0 | 3.2 | 0.00 | 0.86 | 0.05 | 64 | 1018.0 |
| 20260902140637 | 22 | 225 | 0.0 | 4.8 | 0.00 | 0.86 | 0.05 | 64 | 1018.0 |
| 20260902135137 | 22 | 135 | 0.0 | 0.0 | 0.00 | 0.86 | 0.05 | 64 | 1018.0 |
| 20260902133636 | 23 | 112 | 0.0 | 0.0 | 0.00 | 0.86 | 0.05 | 62 | 1018.0 |
| 20260902132136 | 23 | 90 | 0.0 | 0.0 | 0.00 | 0.86 | 0.05 | 61 | 1018.0 |
| 20260902130636 | 23 | 180 | 0.0 | 1.6 | 0.00 | 0.86 | 0.05 | 60 | 1018.0 |
| 20260902125136 | 23 | 90 | 0.0 | 1.6 | 0.00 | 0.86 | 0.05 | 59 | 1018.0 |
| 20260902123636 | 24 | 158 | 0.0 | 0.0 | 0.00 | 0.86 | 0.05 | 58 | 1018.0 |
| 20260902122136 | 24 | 90 | 0.0 | 0.0 | 0.00 | 0.86 | 0.05 | 59 | 1018.0 |
| 20260902120637 | 24 | 225 | 0.0 | 0.0 | 0.00 | 0.86 | 0.05 | 59 | 1018.0 |
| 20260902115136 | 23 | 68 | 1.6 | 1.6 | 0.00 | 0.86 | 0.05 | 61 | 1018.0 |
| 20260902113636 | 23 | 112 | 0.0 | 1.6 | 0.00 | 0.86 | 0.05 | 62 | 1019.0 |
| 20260902112136 | 23 | 315 | 0.0 | 0.0 | 0.00 | 0.86 | 0.05 | 62 | 1019.0 |
| 20260902110635 | 22 | 180 | 0.0 | 1.6 | 0.00 | 0.86 | 0.05 | 62 | 1019.0 |
| 20260902105154 | 22 | 202 | 0.0 | 3.2 | 0.00 | 0.86 | 0.05 | 63 | 1019.0 |
| 20260902104131 | 22 | 112 | 3.2 | 3.2 | 0.00 | 0.86 | 0.05 | 63 | 1019.0 |
| 20260902102631 | 22 | 68 | 0.0 | 0.0 | 0.00 | 0.86 | 0.05 | 63 | 1019.0 |
| 20260902101131 | 22 | 202 | 0.0 | 3.2 | 0.00 | 0.86 | 0.05 | 63 | 1019.0 |
| 20260902095631 | 22 | 0 | 0.0 | 1.6 | 0.00 | 0.86 | 0.05 | 63 | 1019.0 |
| 20260902094131 | 22 | 158 | 0.0 | 3.2 | 0.00 | 0.86 | 0.05 | 63 | 1019.0 |
| 20260902092630 | 22 | 45 | 0.0 | 0.0 | 0.00 | 0.86 | 0.05 | 61 | 1019.0 |
| 20260902091130 | 22 | 112 | 0.0 | 0.0 | 0.00 | 0.86 | 0.05 | 63 | 1020.0 |
| 20260902085630 | 22 | 135 | 0.0 | 1.6 | 0.00 | 0.86 | 0.05 | 64 | 1019.0 |
| 20260902084130 | 21 | 202 | 0.0 | 1.6 | 0.00 | 0.86 | 0.05 | 66 | 1020.0 |
| 20260902082629 | 21 | 202 | 0.0 | 0.0 | 0.00 | 0.86 | 0.05 | 67 | 1020.0 |
| 20260902081129 | 21 | 180 | 0.0 | 0.0 | 0.00 | 0.86 | 0.05 | 69 | 1020.0 |
| 20260902075631 | 20 | 292 | 0.0 | 3.2 | 0.00 | 0.86 | 0.05 | 70 | 1020.0 |
| 20260902074130 | 20 | 68 | 0.0 | 0.0 | 0.00 | 0.86 | 0.05 | 73 | 1020.0 |
| 20260902072630 | 20 | 270 | 0.0 | 0.0 | 0.00 | 0.86 | 0.05 | 77 | 1020.0 |